Location: Caltech
(34.1382°N, 118.1253°W)
Time: 11:44:48
(UTC-07:00)

Gurwin Techsat 1B - Visible Passes

Search period start: 06 May 2016 00:00
Search period end: 16 May 2016 00:00
Orbit: 811 x 815 km, 98.6° (Epoch: 05 May)

Date Brightness Start Highest point End Pass type
(mag) Time Alt. Az. Time Alt. Az. Time Alt. Az.
06 May 8.8 02:59:31 10° NNE 03:04:16 69° NE 03:04:16 69° NE visible
06 May 10.6 04:42:33 10° NW 04:44:04 11° WNW 04:45:28 10° WNW visible
07 May 9.5 02:36:57 10° NNE 02:41:16 43° ENE 02:41:16 43° ENE visible
07 May 10.1 04:17:59 10° NNW 04:21:36 19° WNW 04:22:29 18° W visible
08 May 10.3 02:14:41 10° NE 02:18:17 26° E 02:18:17 26° E visible
08 May 9.5 03:54:27 10° N 03:59:03 30° WNW 03:59:30 30° W visible
09 May 10.9 01:52:59 10° NE 01:55:18 16° E 01:55:18 16° E visible
09 May 8.9 03:31:17 10° N 03:36:25 50° WNW 03:36:31 50° WNW visible
10 May 8.5 03:08:23 10° NNE 03:13:31 82° NNW 03:13:31 82° NNW visible
11 May 9.1 02:45:42 10° NNE 02:50:32 56° E 02:50:32 56° E visible
11 May 10.4 04:27:20 10° NNW 04:30:21 15° WNW 04:31:45 14° W visible
12 May 9.9 02:23:17 10° NNE 02:27:32 33° E 02:27:32 33° E visible
12 May 9.8 04:03:33 10° NNW 04:07:49 25° WNW 04:08:45 24° W visible
13 May 10.6 02:01:18 10° NE 02:04:32 20° E 02:04:32 20° E visible
13 May 9.1 03:40:16 10° N 03:45:13 41° WNW 03:45:45 40° W visible
14 May 11.2 01:40:28 10° ENE 01:41:32 11° E 01:41:32 11° E visible
14 May 8.5 03:17:15 10° N 03:22:33 69° WNW 03:22:45 68° W visible
15 May 8.7 02:54:28 10° NNE 02:59:45 71° E 02:59:45 71° E visible
15 May 10.6 04:36:55 10° NW 04:39:04 13° WNW 04:40:58 11° W visible
